This is the latest recevied weather packets stored in our database for station/object K4GSL. If no packets are shown the sender has not sent any weather packets the latest 10 day(s).
| Time | Temp. | Humidity | Pressure | Rain* | Wind** | Luminosity | Snow |
|---|---|---|---|---|---|---|---|
| 1777213850 | 3.89° C | 89% | 1013.8 hPa | 0 mm | - | 25 W/m² | - |
| 1777213545 | 3.33° C | 91% | 1013.6 hPa | 0 mm | - | 23 W/m² | - |
| 1777213243 | 2.78° C | 91% | 1013.6 hPa | 0 mm | - | 22 W/m² | - |
| 1777212938 | 2.78° C | 93% | 1013.6 hPa | 0 mm | - | 21 W/m² | - |
| 1777212637 | 2.78° C | 95% | 1013.7 hPa | 0 mm | - | 19 W/m² | - |
| 1777212334 | 2.22° C | 95% | 1013.5 hPa | 0 mm | - | 19 W/m² | - |
| 1777212031 | 2.22° C | 95% | 1013.6 hPa | 0 mm | - | 17 W/m² | - |
| 1777211727 | 1.67° C | 96% | 1013.4 hPa | 0 mm | - | 16 W/m² | - |
| 1777211426 | 1.67° C | 96% | 1013.3 hPa | 0 mm | - | 15 W/m² | - |
| 1777211121 | 1.67° C | 96% | 1013.4 hPa | 0 mm | - | 13 W/m² | - |
| 1777210818 | 1.67° C | 96% | 1013.3 hPa | 0 mm | - | 11 W/m² | - |
| 1777210517 | 1.67° C | 97% | 1013.4 hPa | 0 mm | - | 9 W/m² | - |
| 1777210215 | 1.11° C | 97% | 1013.1 hPa | 0 mm | - | 7 W/m² | - |
| 1777209910 | 1.11° C | 96% | 1013.2 hPa | 0 mm | - | 6 W/m² | - |
| 1777209606 | 1.67° C | 96% | 1013 hPa | 0 mm | - | 4 W/m² | - |
| 1777209301 | 1.67° C | 96% | 1013.1 hPa | 0 mm | - | 3 W/m² | - |
| 1777208999 | 1.67° C | 96% | 1012.7 hPa | 0 mm | - | 2 W/m² | - |
| 1777208694 | 1.67° C | 96% | 1012.7 hPa | 0 mm | - | 1 W/m² | - |
| 1777208391 | 1.67° C | 96% | 1012.7 hPa | 0 mm | - | 0 W/m² | - |
| 1777208088 | 1.67° C | 96% | 1012.6 hPa | 0 mm | - | 0 W/m² | - |
| 1777207783 | 1.67° C | 96% | 1012.7 hPa | 0 mm | - | 0 W/m² | - |
| 1777207479 | 1.67° C | 95% | 1012.7 hPa | 0 mm | - | 0 W/m² | - |
| 1777207178 | 1.67° C | 95% | 1012.9 hPa | 0 mm | - | 0 W/m² | - |
| 1777206874 | 1.67° C | 95% | 1012.6 hPa | 0 mm | - | 0 W/m² | - |
| 1777206569 | 2.22° C | 95% | 1012.7 hPa | 0 mm | - | 0 W/m² | - |
* Rain latest hour (hover to see other rain measurements)
** Current wind speed in m/s (hover to see current wind gust speed)